Location: Baggettsville
(36.4767°N, 86.7303°W)
Time: 20:02:02
(UTC+00:00)

Envisat - Pass Details

Date: 18 September 2021
Orbit: 764 x 766 km, 98.2° (Epoch: 15 October)

Event Time Altitude Azimuth Distance (km) Brightness Sun altitude
Rises 10:00:58 0° 27° (NNE) 3,235 6.9 -18.8°
Reaches altitude 10° 10:03:42 10° 41° (NE) 2,305 6.3 -18.3°
Maximum altitude 10:07:47 24° 95° (E) 1,530 5.3 -17.5°
Drops below altitude 10° 10:11:52 10° 149° (SSE) 2,292 5.7 -16.7°
Sets 10:14:33 0° 163° (SSE) 3,213 6.3 -16.2°
